Fort Drum, NY

1:03 PM EDT on April 26, 2017 (GMT -0400)
Wheeler-Sack Army Air Field

Weather History for KGTB - May, 2013

Change the Weather History Date:

Saturday, May 11, 2013

  Actual Average Record
Temperature  
Mean Temperature 53 °F -  
Max Temperature 60 °F 62 °F 82 °F (2001)
Min Temperature 46 °F 42 °F 33 °F (1999)
Degree Days  
Heating Degree Days 12    
Growing Degree Days 3 (Base 50)    
Moisture  
Dew Point 55 °F    
Average Humidity 97    
Maximum Humidity 100    
Minimum Humidity 78    
Precipitation  
Precipitation 0.47 in - - ()
Sea Level Pressure  
Sea Level Pressure 29.68 in    
Wind  
Wind Speed 9 mph (SW)    
Max Wind Speed 18 mph    
Max Gust Speed 30 mph    
Visibility 8 miles    
Events Rain    
Averages and records for this station are not official NWS values.
T = Trace of Precipitation, MM = Missing Value Source: NWS Daily Summary

Daily Weather History Graph

Daily Weather History Graph

Search for Another Location

Airport or City:

Trip Planner

Search our weather history database for the weather conditions in past years. The results will help you decide how hot, cold, wet, or windy it might be!

Date:

Astronomy

May. 11, 2013 Rise Set
Actual Time 5:40 AM EDT 8:18 PM EDT
Civil Twilight 5:08 AM EDT 8:51 PM EDT
Nautical Twilight 4:26 AM EDT 9:32 PM EDT
Astronomical Twilight 3:39 AM EDT 10:20 PM EDT
Moon 6:46 AM EDT (5/11) 9:57 PM EDT (5/11)
Length of Visible Light 15h 43m
Length of Day
14h 37m
Waxing Crescent, 3% of the Moon is Illuminated
May 11
Waxing Crescent
May 18
First Quarter
May 25
Full
May 31
Last Quarter
Jun 8
New

Hourly Weather History & Observations

Time (EDT) Temp. Dew Point Humidity Pressure Visibility Wind Dir Wind Speed Gust Speed Precip Events Conditions
12:48 AM 60.8 °F 60.8 °F 100% 29.72 in 8.0 mi South 9.2 mph - N/A Rain Rain
12:53 AM 60.8 °F 60.8 °F 100% 29.72 in 8.0 mi South 8.1 mph - N/A Rain Light Rain
12:58 AM 60.4 °F 60.4 °F 100% 29.71 in 10.0 mi South 8.1 mph - 0.04 in Rain Light Rain
1:03 AM 60.8 °F 60.8 °F 100% 29.71 in 8.0 mi SSW 9.2 mph - N/A Rain Light Rain
1:43 AM 59.0 °F 59.0 °F 100% 29.69 in 10.0 mi SSW 10.4 mph 17.3 mph N/A Rain Light Rain
1:48 AM 59.0 °F 59.0 °F 100% 29.69 in 10.0 mi SW 8.1 mph 17.3 mph N/A Rain Light Rain
1:53 AM 59.0 °F 59.0 °F 100% 29.69 in 9.0 mi SW 5.8 mph 17.3 mph N/A Rain Light Rain
1:58 AM 59.7 °F 59.7 °F 100% 29.69 in 9.0 mi SW 9.2 mph - 0.07 in Rain Light Rain
2:03 AM 59.0 °F 59.0 °F 100% 29.69 in 10.0 mi SW 6.9 mph - N/A Rain Light Rain
2:08 AM 59.0 °F 59.0 °F 100% 29.68 in 10.0 mi Variable 6.9 mph - N/A Rain Light Rain
2:13 AM 59.0 °F 59.0 °F 100% 29.68 in 9.0 mi WSW 6.9 mph - N/A Rain Light Rain
2:23 AM 59.0 °F 59.0 °F 100% 29.68 in 8.0 mi SW 5.8 mph - N/A Rain Light Rain
2:38 AM 59.0 °F 59.0 °F 100% 29.67 in 4.0 mi WSW 11.5 mph 17.3 mph N/A Rain Heavy Rain
2:43 AM 59.0 °F 59.0 °F 100% 29.67 in 2.0 mi SW 11.5 mph 21.9 mph N/A Rain Heavy Rain
2:48 AM 59.0 °F 59.0 °F 100% 29.67 in 2.0 mi WSW 8.1 mph 21.9 mph N/A Rain Heavy Rain
2:53 AM 59.0 °F 59.0 °F 100% 29.67 in 4.0 mi WSW 8.1 mph - N/A Rain Light Rain
2:58 AM 59.0 °F 59.0 °F 100% 29.67 in 7.0 mi WSW 6.9 mph - 0.16 in Rain Light Rain
3:03 AM 59.0 °F 59.0 °F 100% 29.67 in 4.0 mi SW 8.1 mph - N/A Rain Rain
3:08 AM 59.0 °F 59.0 °F 100% 29.67 in 2.5 mi WSW 6.9 mph - N/A Rain Heavy Rain
3:18 AM 59.0 °F 59.0 °F 100% 29.67 in 6.0 mi SW 8.1 mph - N/A Rain Light Rain
3:23 AM 59.0 °F 59.0 °F 100% 29.67 in 10.0 mi WSW 9.2 mph - N/A Rain Light Rain
3:33 AM 59.0 °F 59.0 °F 100% 29.66 in 10.0 mi SW 8.1 mph - N/A   Light Drizzle
3:58 AM 58.8 °F 58.8 °F 100% 29.66 in 9.0 mi SW 8.1 mph - 0.10 in   Drizzle
4:03 AM 59.0 °F 59.0 °F 100% 29.65 in 9.0 mi SSW 8.1 mph - N/A   Light Drizzle
4:08 AM 59.0 °F 59.0 °F 100% 29.65 in 10.0 mi SSW 8.1 mph - N/A   Light Drizzle
4:13 AM 59.0 °F 59.0 °F 100% 29.65 in 10.0 mi SSW 6.9 mph - N/A   Overcast
4:24 AM 59.0 °F 59.0 °F 100% 29.65 in 10.0 mi SSW 8.1 mph - N/A   Light Drizzle
4:34 AM 59.0 °F 59.0 °F 100% 29.65 in 10.0 mi SSW 8.1 mph - N/A   Light Drizzle
4:43 AM 59.0 °F 59.0 °F 100% 29.64 in 10.0 mi SSW 8.1 mph - N/A   Overcast
4:58 AM 58.6 °F 58.6 °F 100% 29.64 in 10.0 mi SSW 8.1 mph - 0.00 in   Overcast
5:03 AM 59.0 °F 59.0 °F 100% 29.64 in 10.0 mi SSW 8.1 mph - N/A   Mostly Cloudy
5:18 AM 59.0 °F 59.0 °F 100% 29.64 in 10.0 mi SW 6.9 mph - N/A   Mostly Cloudy
5:58 AM 59.5 °F 59.5 °F 100% 29.64 in 10.0 mi SSW 11.5 mph - N/A   Overcast
6:58 AM 60.1 °F 60.1 °F 100% 29.65 in 10.0 mi SW 8.1 mph - N/A   Overcast
7:07 AM 60.8 °F 60.8 °F 100% 29.64 in 7.0 mi SW 10.4 mph 16.1 mph N/A   Light Drizzle
7:12 AM 60.8 °F 60.8 °F 100% 29.65 in 5.0 mi SW 10.4 mph - N/A   Light Drizzle
7:17 AM 59.0 °F 59.0 °F 100% 29.65 in 4.0 mi SW 10.4 mph 17.3 mph N/A   Light Drizzle
7:27 AM 59.0 °F 59.0 °F 100% 29.65 in 6.0 mi SW 8.1 mph - N/A   Light Drizzle
7:29 AM 59.0 °F 59.0 °F 100% 29.65 in 8.0 mi SSW 8.1 mph - N/A   Overcast
7:38 AM 59.0 °F 59.0 °F 100% 29.64 in 10.0 mi SSW 8.1 mph - N/A   Light Drizzle
7:58 AM 59.5 °F 59.5 °F 100% 29.65 in 4.0 mi SW 10.4 mph - 0.02 in Rain Rain
8:03 AM 59.0 °F 59.0 °F 100% 29.64 in 2.0 mi SW 9.2 mph - N/A Rain Heavy Rain
8:13 AM 59.0 °F 59.0 °F 100% 29.64 in 5.0 mi WSW 11.5 mph 18.4 mph N/A Rain Light Rain
8:38 AM 55.4 °F 55.4 °F 100% 29.66 in 2.5 mi WSW 18.4 mph 29.9 mph N/A Rain Light Rain
8:48 AM 53.6 °F 53.6 °F 100% 29.66 in 3.0 mi West 12.7 mph 25.3 mph N/A Rain Light Rain
8:58 AM 53.6 °F 53.6 °F 100% 29.67 in 4.0 mi WSW 12.7 mph 19.6 mph 0.07 in Rain Light Rain
9:16 AM 51.8 °F 51.8 °F 100% 29.67 in 7.0 mi WSW 17.3 mph 26.5 mph N/A   Overcast
9:58 AM 49.8 °F 49.8 °F 100% 29.68 in 10.0 mi SW 12.7 mph 20.7 mph 0.01 in   Overcast
10:03 AM 50.0 °F 50.0 °F 100% 29.68 in 10.0 mi WSW 17.3 mph 21.9 mph N/A   Overcast
10:23 AM 50.0 °F 50.0 °F 100% 29.68 in 10.0 mi SW 12.7 mph 23.0 mph N/A   Overcast
10:38 AM 50.0 °F 50.0 °F 100% 29.69 in 10.0 mi SW 11.5 mph 20.7 mph N/A   Overcast
10:58 AM 50.7 °F 50.7 °F 100% 29.70 in 10.0 mi WSW 12.7 mph 24.2 mph N/A   Overcast
11:03 AM 50.0 °F 50.0 °F 100% 29.70 in 10.0 mi WSW 13.8 mph 23.0 mph N/A   Overcast
11:23 AM 51.8 °F 50.0 °F 94% 29.70 in 10.0 mi SW 16.1 mph 24.2 mph N/A   Overcast
11:58 AM 50.4 °F 48.4 °F 93% 29.72 in 10.0 mi WSW 13.8 mph 24.2 mph N/A   Overcast
12:58 PM 50.5 °F 47.1 °F 88% 29.72 in 10.0 mi WSW 16.1 mph 29.9 mph N/A   Overcast
1:53 PM 51.8 °F 46.4 °F 82% 29.71 in 10.0 mi WSW 16.1 mph 26.5 mph N/A   Overcast
1:58 PM 52.2 °F 46.6 °F 81% 29.72 in 10.0 mi WSW 17.3 mph 27.6 mph N/A   Overcast
2:38 PM 51.8 °F 46.4 °F 82% 29.72 in 10.0 mi SW 16.1 mph 24.2 mph N/A   Overcast
2:58 PM 51.6 °F 46.8 °F 83% 29.73 in 10.0 mi WSW 15.0 mph 24.2 mph N/A   Overcast
3:28 PM 51.8 °F 46.4 °F 82% 29.71 in 10.0 mi WSW 12.7 mph 20.7 mph N/A   Overcast
3:58 PM 51.6 °F 45.5 °F 80% 29.72 in 10.0 mi WSW 13.8 mph 27.6 mph N/A   Overcast
4:58 PM 52.2 °F 45.5 °F 78% 29.72 in 10.0 mi WSW 10.4 mph - N/A   Overcast
5:58 PM 50.7 °F 45.0 °F 81% 29.73 in 10.0 mi WSW 8.1 mph - N/A   Overcast
6:58 PM 49.6 °F 45.5 °F 86% 29.75 in 10.0 mi Variable 6.9 mph - N/A   Overcast
7:58 PM 49.3 °F 45.7 °F 87% 29.75 in 10.0 mi SSW 8.1 mph - N/A   Mostly Cloudy
8:58 PM 48.7 °F 45.7 °F 89% 29.75 in 10.0 mi SW 5.8 mph - N/A   Overcast
9:38 PM 48.2 °F 46.4 °F 93% 29.74 in 10.0 mi SSW 6.9 mph - N/A   Scattered Clouds
9:58 PM 46.9 °F 46.4 °F 98% 29.75 in 10.0 mi SSW 8.1 mph - N/A   Partly Cloudy
10:58 PM 46.8 °F 46.8 °F 100% 29.74 in 10.0 mi SW 5.8 mph - N/A   Mostly Cloudy
11:58 PM 48.6 °F 47.7 °F 97% 29.72 in 10.0 mi WSW 5.8 mph - N/A   Overcast